Regional Weather Roundup
Issued by NWS Sioux Falls, SD

Home | Current Version | Previous Version | Text Only | Print | Product List | Glossary On
Versions: 1 2 3 4 5 6 7 8 9 10 11 12 13 14 15 16 17 18 19 20 21 22 23 24 25 26 27 28 29 30 31 32 33 34 35 36 37 38 39 40 41 42 43 44 45 46 47 48 49 50
000
ASUS43 KFSD 261502
RWRFSD

WEATHER ROUNDUP FOR SE SOUTH DAKOTA/SW MINNESOTA/NW IOWA
NATIONAL WEATHER SERVICE SIOUX FALLS SD
1000 AM CDT MON JUN 26 2017

NOTE: "FAIR" INDICATES FEW OR NO CLOUDS BELOW 12,000 FEET WITH NO
SIGNIFICANT WEATHER AND OR OBSTRUCTIONS TO VISIBILITY.


SDZ038>040-050-052>070-261600-
SOUTHEAST SOUTH DAKOTA

CITY           SKY/WX    TMP DP  RH WIND       PRES   REMARKS
BROOKINGS      SUNNY     61  42  49 NE8       30.25S
CHAMBERLAIN    SUNNY     67  48  52 NE7       30.26S
HURON          SUNNY     62  47  57 CALM      30.27R
MADISON        FAIR      59  45  58 NE9       30.26R
MITCHELL       SUNNY     65  48  54 NE9       30.26S
SIOUX FALLS    MOSUNNY   63  51  65 E9        30.24R
WINNER         FAIR      68  47  46 E10       30.25S
YANKTON        SUNNY     64  51  62 E9        30.23S
$$

MNZ071-072-080-081-089-090-097-098-261600-
SOUTHWEST MINNESOTA

CITY           SKY/WX    TMP DP  RH WIND       PRES   REMARKS
FAIRMONT       SUNNY     62  45  53 N8        30.22S
JACKSON        SUNNY     61  45  55 N9        30.23R
LUVERNE        SUNNY     61  41  48 NE8       30.24S
MARSHALL       SUNNY     60  46  59 NE8       30.25S
MONTEVIDEO     SUNNY     64  48  55 N5        30.25R
PIPESTONE      SUNNY     61  41  48 NE9G16    30.24S
REDWOOD FALLS  SUNNY     62  42  47 N9        30.23S
TRACY          SUNNY     60  48  65 N8        30.25S
WINDOM         SUNNY     63  43  48 N10       30.23S
WORTHINGTON    SUNNY     61  46  57 N10       30.24S
$$

IAZ001>003-012>014-020>022-031-032-NEZ013-014-SDZ071-261600-
NORTHWEST IOWA

CITY           SKY/WX    TMP DP  RH WIND       PRES   REMARKS
CHEROKEE       MOSUNNY   61  53  73 N3        30.22S
DENISON        MOSUNNY   63  54  72 VRB5      30.23S
ESTHERVILLE    SUNNY     61  49  64 N9        30.22R
LE MARS        SUNNY     64  52  63 NE6       30.23S
ORANGE CITY    SUNNY     64  50  59 E5        30.23R
SHELDON        SUNNY     63  50  63 NE6       30.22S
SIOUX CITY     SUNNY     66  55  67 CALM      30.21S
SPENCER        SUNNY     64  48  56 N10       30.22S
STORM LAKE     MOSUNNY   63  52  67 NE8       30.22S
$$

ABBREVIATIONS USED IN REMARKS
   TC - TEMPERATURE IN CELSIUS
  WCI - WIND CHILL INDEX
   HX - HEAT INDEX
  VSB - VISIBILITY





USA.gov is the U.S. government's official web portal to all federal, state and local government web resources and services.